Weather Roundup
Issued by NWS

Home | Current Version | Previous Version | Text Only | Print | Product List | Glossary On
Versions: 1 2 3 4 5 6 7 8 9 10 11 12 13 14 15 16 17 18 19 20 21 22 23 24 25 26 27 28 29 30 31 32 33 34 35 36 37 38 39 40 41 42 43 44 45 46 47 48 49 50
150
NZUS93 KARX 091010
HRRWXR

CURRENT HOURLY OBSERVATIONS ACROSS
MUCH OF THE UPPER MISSISSIPPI VALLEY
NATIONAL WEATHER SERVICE LA CROSSE WI
400 AM CST TUE FEB 09 2016


...SOUTHEAST MINNESOTA...


CITY           SKY/WX    TMP DP  RH WIND       PRES   REMARKS
ROCHESTER      CLOUDY     8   2  76 N18       29.94R WCI -11
ROCHESTER/MAYO CLOUDY     9   3  75 NW13G21   29.95R WCI  -6
WINONA         CLOUDY    12   3  67 N15G29    29.97R WCI  -4
AUSTIN         CLOUDY     9   3  78 NW13      29.95S WCI  -7
ALBERT LEA     CLOUDY     9   3  78 N14G22    29.98R WCI  -8
DODGE CENTER   FLURRIES   9   3  78 N13       29.94R WCI  -7
PRESTON        CLOUDY     7   0  73 N16G28    29.92R HAZE    WCI -11
OWATONNA       CLOUDY     9   3  78 NW17      29.99R WCI -10
FARIBAULT      PTCLDY     9   1  72 NW16G22   30.01R WCI  -9
$$

...ELSEWHERE IN MINNESOTA...


CITY           SKY/WX    TMP DP  RH WIND       PRES   REMARKS
MINNEAPOLIS    MOCLDY     8   0  69 N17G23    30.04R WCI -10
INTNL FALLS    CLOUDY    -1  -6  79 N10       30.08S WCI -17
DULUTH         CLOUDY     2  -5  72 N18G24    29.94S WCI -19
RED WING       CLOUDY    10   0  61 NW8       29.99S WCI  -1
REDWOOD FALLS  CLEAR      7   1  76 NW15G24   30.12R WCI -10
MANKATO        CLEAR     10   1  67 NW15      30.03R WCI  -6
WORTHINGTON    CLOUDY     5  -2  72 N25       30.09R WCI -18
FAIRMONT       CLOUDY     9   1  72 NW24      30.04R WCI -12
$$

...SOUTHWEST WISCONSIN...


CITY           SKY/WX    TMP DP  RH WIND       PRES   REMARKS
LA CROSSE      MOCLDY     9   0  67 N12       29.94R WCI  -6
PRAIRIE DU CHI CLOUDY    13   3  64 NW13G20   29.91R WCI  -2
BOSCOBEL       CLEAR     12   2  64 N12G24    29.89S WCI  -2
LONE ROCK      FLURRIES  12   3  67 NW9       29.86S WCI   0
PLATTEVILLE    CLEAR     11   5  76 NW16      29.83R WCI  -6
FORT MC COY    CLEAR      8   1  74 NW6       29.91R WCI  -2
CAMP DOUGLAS   FLURRIES   9   5  85 NW15      29.85S WCI  -8
VIROQUA        PTSUNNY    7   1  75 NW12      29.85R WCI  -8
WIS DELLS      MOCLDY     9   2  75 NW12G21   29.82R WCI  -6
$$

...ELSEWHERE IN WISCONSIN...


CITY           SKY/WX    TMP DP  RH WIND       PRES   REMARKS
MILWAUKEE      FLURRIES  18  12  77 NW12      29.73S WCI   5
MADISON        FLURRIES  11   5  77 NW14G23   29.80R WCI  -5
GREEN BAY      LGT SNOW  15  11  83 NW7       29.76S FOG     WCI   5
EAU CLAIRE     CLOUDY     7  -2  66 NW18G26   29.94R WCI -12
BLACK RVR FLS  FLURRIES   8   0  69 NW7       29.91R WCI  -4
MEDFORD        CLOUDY     6   1  81 NW10G17   29.79S WCI  -9
WAUSAU         LGT SNOW   9   3  77 NW9       29.78R WCI  -4
WIS RAPIDS     MOCLDY     8   0  69 NW10      29.84R WCI  -6
MARSHFIELD     CLOUDY     7   0  73 NW18      29.80S WCI -12
RICE LAKE      PTCLDY     4  -2  74 NW7       29.96S WCI  -8
$$

...NORTHEAST IOWA...


CITY           SKY/WX    TMP DP  RH WIND       PRES   REMARKS
WATERLOO       CLOUDY    12   6  77 NW21      29.94R WCI  -7
DUBUQUE        CLOUDY    12   5  73 N18       29.83R WCI  -6
DECORAH        FLURRIES  10   3  72 N16G25    29.89R WCI  -7
MASON CITY     MIX PCPN  10   5  80 N24       29.99R WCI -10
CHARLES CITY   CLOUDY    10   7  85 N20G26    29.95R WCI  -8
OELWEIN        LGT SNOW  12   7  79 N16G26    29.91R WCI  -4
$$

...ELSEWHERE IN IOWA...


CITY           SKY/WX    TMP DP  RH WIND       PRES   REMARKS
DES MOINES     FLURRIES  13   5  70 N12G24    30.02R WCI  -1
IOWA CITY      FLURRIES  15   9  76 NW14      29.92S WCI   0
FORT DODGE     CLOUDY     9   0  66 NW15G29   30.05R WCI  -8
MARSHALLTOWN   CLOUDY    12   7  80 NW21      29.96S WCI  -7
CEDAR RAPIDS   MIX PCPN  14   9  80 N24G31    29.89R WCI  -5
$$

...NORTHERN ILLINOIS...


CITY           SKY/WX    TMP DP  RH WIND       PRES   REMARKS
CHICAGO-OHARE  LGT SNOW  18  13  80 NW14      29.73S WCI   4
CHICAGO-MIDWAY LGT SNOW  19  12  74 NW12      29.74R FOG     WCI   7
MOLINE         FLURRIES  15   9  76 NW13      29.86S WCI   1
ROCKFORD       LGT SNOW  16  11  80 NW12      29.80R BLWGSNOWWCI   3
PEORIA         LGT SNOW  16  11  80 NW14G21   29.84R WCI   2
$$

NOTE: "FAIR" INDICATES FEW OR NO CLOUDS BELOW 12,000 FEET WITH NO
SIGNIFICANT WEATHER AND/OR OBSTRUCTIONS TO VISIBILITY. WIND
SPEEDS ARE IN MILES-PER-HOUR.




USA.gov is the U.S. government's official web portal to all federal, state and local government web resources and services.